| time (UTC) | temp F | wind direction | speed knots | gust knots | rain 1hr in | rain 24hr in | rain mn in | humidity % | barometer mb |
| 20260510153055 | 55 | 21 | 6.1 | 13.0 | 0.00 | 0.00 | 0.00 | 56 | 1015.5 |
| 20260510151556 | 55 | 30 | 3.5 | 13.0 | 0.00 | 0.00 | 0.00 | 57 | 1015.7 |
| 20260510150123 | 56 | 43 | 4.3 | 13.0 | 0.00 | 0.00 | 0.00 | 56 | 1015.7 |
| 20260510144557 | 55 | 55 | 6.1 | 13.9 | 0.00 | 0.00 | 0.00 | 58 | 1015.9 |
| 20260510143101 | 56 | 68 | 6.1 | 13.0 | 0.00 | 0.00 | 0.00 | 56 | 1016.0 |
| 20260510141555 | 55 | 19 | 6.1 | 14.8 | 0.00 | 0.00 | 0.00 | 58 | 1016.2 |
| 20260510140053 | 56 | 49 | 6.1 | 13.0 | 0.00 | 0.00 | 0.00 | 56 | 1016.3 |
| 20260510134557 | 56 | 102 | 5.2 | 14.8 | 0.00 | 0.00 | 0.00 | 57 | 1016.4 |
| 20260510133058 | 55 | 37 | 7.0 | 15.6 | 0.00 | 0.00 | 0.00 | 59 | 1016.6 |
| 20260510131554 | 55 | 30 | 5.2 | 13.9 | 0.00 | 0.00 | 0.00 | 61 | 1016.6 |
| 20260510130056 | 54 | 113 | 5.2 | 12.2 | 0.00 | 0.00 | 0.00 | 64 | 1016.7 |
| 20260510124602 | 54 | 35 | 5.2 | 13.9 | 0.00 | 0.00 | 0.00 | 64 | 1016.8 |
| 20260510123057 | 54 | 34 | 5.2 | 13.9 | 0.00 | 0.00 | 0.00 | 63 | 1017.0 |
| 20260510121552 | 53 | 24 | 5.2 | 14.8 | 0.00 | 0.00 | 0.00 | 67 | 1017.2 |
| 20260510120054 | 53 | 342 | 6.1 | 14.8 | 0.00 | 0.00 | 0.00 | 66 | 1017.3 |
| 20260510114555 | 54 | 51 | 3.5 | 12.2 | 0.00 | 0.00 | 0.00 | 66 | 1017.4 |
| 20260510113054 | 53 | 30 | 3.5 | 10.4 | 0.00 | 0.00 | 0.00 | 69 | 1017.5 |
| 20260510111603 | 54 | 24 | 4.3 | 15.6 | 0.00 | 0.00 | 0.00 | 68 | 1017.6 |
| 20260510110057 | 53 | 327 | 2.6 | 13.0 | 0.00 | 0.00 | 0.00 | 69 | 1017.6 |
| 20260510104553 | 54 | 31 | 6.1 | 14.8 | 0.00 | 0.00 | 0.00 | 68 | 1017.6 |
| 20260510103103 | 53 | 28 | 4.3 | 13.9 | 0.00 | 0.00 | 0.00 | 69 | 1017.6 |
| 20260510101559 | 53 | 348 | 7.0 | 17.4 | 0.00 | 0.00 | 0.00 | 69 | 1017.7 |
| 20260510100054 | 54 | 313 | 7.0 | 15.6 | 0.00 | 0.00 | 0.00 | 69 | 1017.8 |
| 20260510094610 | 53 | 44 | 6.1 | 14.8 | 0.00 | 0.00 | 0.00 | 69 | 1017.7 |
| 20260510093111 | 54 | 58 | 4.3 | 13.0 | 0.00 | 0.00 | 0.00 | 69 | 1017.8 |
| 20260510091557 | 53 | 24 | 5.2 | 12.2 | 0.00 | 0.00 | 0.00 | 71 | 1018.0 |
| 20260510090055 | 54 | 94 | 5.2 | 12.2 | 0.00 | 0.00 | 0.00 | 70 | 1018.2 |
| 20260510084552 | 53 | 33 | 5.2 | 11.3 | 0.00 | 0.00 | 0.00 | 72 | 1018.2 |
| 20260510083105 | 53 | 55 | 5.2 | 12.2 | 0.00 | 0.00 | 0.00 | 73 | 1018.1 |
| 20260510081555 | 53 | 36 | 3.5 | 12.2 | 0.00 | 0.00 | 0.00 | 74 | 1018.2 |
| 20260510080057 | 53 | 329 | 4.3 | 12.2 | 0.00 | 0.00 | 0.00 | 75 | 1018.1 |
| 20260510074602 | 52 | 5 | 4.3 | 14.8 | 0.00 | 0.00 | 0.00 | 75 | 1018.0 |
| 20260510073057 | 52 | 318 | 5.2 | 14.8 | 0.00 | 0.00 | 0.00 | 76 | 1018.1 |
| 20260510071600 | 52 | 5 | 5.2 | 13.0 | 0.00 | 0.00 | 0.00 | 77 | 1018.2 |
| 20260510070053 | 51 | 35 | 6.1 | 13.9 | 0.00 | 0.00 | 0.00 | 80 | 1018.0 |
| 20260510064600 | 51 | 268 | 4.3 | 13.0 | 0.00 | 0.00 | 0.00 | 82 | 1018.1 |
| 20260510063057 | 50 | 352 | 3.5 | 10.4 | 0.00 | 0.00 | 0.00 | 83 | 1017.8 |
| 20260510061603 | 49 | 11 | 5.2 | 11.3 | 0.00 | 0.00 | 0.00 | 84 | 1017.8 |
| 20260510060056 | 49 | 11 | 4.3 | 11.3 | 0.00 | 0.00 | 0.00 | 85 | 1017.8 |
| 20260510054554 | 48 | 360 | 3.5 | 12.2 | 0.00 | 0.00 | 0.00 | 86 | 1017.7 |
| 20260510053059 | 48 | 34 | 3.5 | 9.6 | 0.00 | 0.00 | 0.00 | 86 | 1017.7 |
| 20260510051605 | 48 | 9 | 3.5 | 10.4 | 0.00 | 0.00 | 0.00 | 85 | 1017.7 |
| 20260510050057 | 48 | 21 | 2.6 | 7.8 | 0.00 | 0.00 | 0.00 | 85 | 1017.9 |
| 20260510044609 | 48 | 14 | 2.6 | 8.7 | 0.00 | 0.00 | 0.00 | 85 | 1017.8 |
| 20260510043051 | 48 | 59 | 2.6 | 8.7 | 0.00 | 0.00 | 0.00 | 84 | 1017.8 |
| 20260510041554 | 48 | 27 | 2.6 | 8.7 | 0.00 | 0.00 | 0.00 | 84 | 1017.8 |
| 20260510040058 | 48 | 44 | 3.5 | 10.4 | 0.00 | 0.00 | 0.00 | 84 | 1017.9 |
| 20260510034553 | 49 | 24 | 3.5 | 8.7 | 0.00 | 0.00 | 0.00 | 84 | 1017.8 |
| 20260510033059 | 49 | 15 | 3.5 | 10.4 | 0.00 | 0.00 | 0.00 | 85 | 1018.1 |
| 20260510031554 | 49 | 5 | 4.3 | 9.6 | 0.00 | 0.00 | 0.00 | 85 | 1018.2 |
| 20260510024556 | 49 | 19 | 2.6 | 7.8 | 0.00 | 0.00 | 0.00 | 85 | 1018.1 |
| 20260510023053 | 49 | 360 | 2.6 | 8.7 | 0.00 | 0.00 | 0.00 | 85 | 1018.1 |
| 20260510021600 | 49 | 43 | 2.6 | 9.6 | 0.00 | 0.00 | 0.00 | 85 | 1018.4 |
| 20260510020056 | 49 | 28 | 3.5 | 9.6 | 0.00 | 0.00 | 0.00 | 85 | 1018.5 |
| 20260510014553 | 49 | 55 | 5.2 | 10.4 | 0.00 | 0.00 | 0.00 | 84 | 1018.3 |
| 20260510013054 | 49 | 9 | 2.6 | 7.0 | 0.00 | 0.00 | 0.00 | 84 | 1018.2 |
| 20260510011552 | 49 | 351 | 2.6 | 9.6 | 0.00 | 0.00 | 0.00 | 83 | 1018.1 |
| 20260510010055 | 49 | 42 | 1.7 | 10.4 | 0.00 | 0.00 | 0.00 | 82 | 1018.4 |
| 20260510004553 | 50 | 9 | 0.9 | 7.0 | 0.00 | 0.00 | 0.00 | 81 | 1018.5 |
| 20260510003101 | 50 | 0 | 2.6 | 8.7 | 0.00 | 0.00 | 0.00 | 80 | 1018.5 |
| 20260510001556 | 50 | 43 | 2.6 | 7.0 | 0.00 | 0.00 | 0.00 | 80 | 1018.7 |
| 20260510000058 | 51 | 47 | 3.5 | 11.3 | 0.00 | 0.00 | 0.00 | 79 | 1018.5 |
| 20260509234557 | 51 | 350 | 2.6 | 7.8 | 0.00 | 0.00 | 0.00 | 77 | 1018.5 |
| 20260509233057 | 52 | 13 | 1.7 | 6.1 | 0.00 | 0.00 | 0.00 | 75 | 1018.5 |
| 20260509231604 | 52 | 26 | 1.7 | 5.2 | 0.00 | 0.00 | 0.00 | 74 | 1018.5 |
| 20260509230100 | 52 | 32 | 1.7 | 6.1 | 0.00 | 0.00 | 0.00 | 71 | 1018.5 |
| 20260509224601 | 53 | 352 | 1.7 | 8.7 | 0.00 | 0.00 | 0.00 | 70 | 1018.7 |
| 20260509223058 | 53 | 344 | 2.6 | 6.1 | 0.00 | 0.00 | 0.00 | 69 | 1018.7 |
| 20260509221603 | 53 | 30 | 1.7 | 7.8 | 0.00 | 0.00 | 0.00 | 67 | 1018.4 |
| 20260509220110 | 54 | 17 | 0.9 | 5.2 | 0.00 | 0.00 | 0.00 | 66 | 1018.4 |
| 20260509214600 | 54 | 15 | 1.7 | 6.1 | 0.00 | 0.00 | 0.00 | 64 | 1018.2 |
| 20260509213133 | 55 | 0 | 1.7 | 7.0 | 0.00 | 0.00 | 0.00 | 61 | 1018.3 |
| 20260509211554 | 55 | 49 | 1.7 | 5.2 | 0.00 | 0.00 | 0.00 | 60 | 1018.4 |
| 20260509210106 | 55 | 46 | 0.9 | 7.0 | 0.00 | 0.00 | 0.00 | 57 | 1018.2 |
| 20260509204552 | 56 | 0 | 0.9 | 7.0 | 0.00 | 0.00 | 0.00 | 54 | 1018.3 |
| 20260509203059 | 57 | 35 | 1.7 | 7.0 | 0.00 | 0.00 | 0.00 | 51 | 1018.0 |
| 20260509201559 | 57 | 30 | 2.6 | 7.0 | 0.00 | 0.00 | 0.00 | 50 | 1017.9 |
| 20260509200105 | 58 | 11 | 1.7 | 7.0 | 0.00 | 0.00 | 0.00 | 49 | 1017.8 |
| 20260509194604 | 59 | 53 | 1.7 | 7.0 | 0.00 | 0.00 | 0.00 | 48 | 1017.7 |
| 20260509193102 | 59 | 22 | 1.7 | 7.0 | 0.00 | 0.00 | 0.00 | 47 | 1017.7 |
| 20260509191555 | 60 | 29 | 0.9 | 8.7 | 0.00 | 0.00 | 0.00 | 48 | 1017.4 |
| 20260509190101 | 60 | 0 | 1.7 | 6.1 | 0.00 | 0.00 | 0.00 | 49 | 1017.2 |
| 20260509184555 | 61 | 67 | 3.5 | 8.7 | 0.00 | 0.00 | 0.00 | 47 | 1017.3 |
| 20260509183053 | 62 | 78 | 3.5 | 7.0 | 0.00 | 0.00 | 0.00 | 46 | 1017.3 |
| 20260509181559 | 62 | 57 | 4.3 | 8.7 | 0.00 | 0.00 | 0.00 | 45 | 1017.1 |
| 20260509180054 | 62 | 70 | 2.6 | 10.4 | 0.00 | 0.00 | 0.00 | 46 | 1017.0 |
| 20260509174556 | 63 | 49 | 3.5 | 8.7 | 0.00 | 0.00 | 0.00 | 43 | 1017.2 |
| 20260509173056 | 64 | 83 | 4.3 | 9.6 | 0.00 | 0.00 | 0.00 | 41 | 1017.1 |
| 20260509171553 | 64 | 103 | 5.2 | 9.6 | 0.00 | 0.00 | 0.00 | 39 | 1017.2 |
| 20260509170055 | 65 | 111 | 4.3 | 11.3 | 0.00 | 0.00 | 0.00 | 37 | 1017.2 |
| 20260509164553 | 65 | 126 | 5.2 | 10.4 | 0.00 | 0.00 | 0.00 | 36 | 1017.2 |
| 20260509163054 | 66 | 63 | 4.3 | 10.4 | 0.00 | 0.00 | 0.00 | 36 | 1017.3 |
| 20260509161554 | 66 | 85 | 4.3 | 10.4 | 0.00 | 0.00 | 0.00 | 36 | 1017.4 |
| 20260509160052 | 67 | 69 | 5.2 | 11.3 | 0.00 | 0.00 | 0.00 | 35 | 1017.5 |
| 20260509154556 | 67 | 109 | 7.0 | 10.4 | 0.00 | 0.00 | 0.00 | 35 | 1017.4 |